Flag for Germany Weather past 2 weeks in Rotenburg (Wümme), Lower Saxony, Germany

Now
53 °F

Scattered clouds.


Feels Like: 53 °F
Forecast: 46 / 57 °F
Wind: 2 mph from South

Location: Bremen

Current Time: May 24, 2015 at 10:25:19 AM

Latest Report: May 24, 2015 at 10:00 AM


Visibility: 19 mi

Pressure: 30.16 "Hg

Humidity: 66%

Dew point: 41 °F

Location of Rotenburg (Wümme)Location

Historic Weather in Rotenburg (Wümme) — Graph

°F

Rotenburg (Wümme) temperature yesterday

Maximum temperature yesterday: 60 °F (at 3:00 PM)
Minimum temperature yesterday: 50 °F (at 10:00 PM)
Average temperature yesterday: 55 °F

Past Weeks' High & Low Weather Summary

 TemperatureHumidityPressure
High75 °F (May 11, 6:00 PM)100% (May 24, 3:00 AM)30.33 "Hg (May 24, 3:00 AM)
Low35 °F (May 16, 5:00 AM)39% (May 11, 6:00 PM)29.59 "Hg (May 18, 9:00 PM)
Average52 °F72%30.06 "Hg
* Reported May 9 9:00 AM — May 24 9:00 AM, Rotenburg (Wümme), Weather by CustomWeather, © 2015

Note: Actual official high and low records may vary slightly from our data, if they occured in-between our weather recording intervals... More about our weather records

Advertising

Rotenburg (Wümme) weather history for previous 24 hours

 ConditionsComfort  
Time TempWeatherWind HumidityBarometerVisibility
9:00 AM
Sun, May 24
51 °FScattered clouds.1 mph66%30.17 "Hg19 mi
8:00 AM47 °FPassing clouds.1 mph79%30.17 "Hg19 mi
7:00 AM39 °FFog.1 mph93%30.18 "Hg16 mi
6:00 AM36 °FFog.1 mph100%30.18 "Hg1 mi
5:00 AM36 °FFog.1 mph98%30.17 "Hg1 mi
4:00 AM36 °FFog.1 mph100%30.18 "Hg16 mi
3:00 AM38 °FFog.2 mph100%30.19 "Hg16 mi
2:00 AM41 °FFog.1 mph94%30.18 "Hg16 mi
1:00 AM44 °FOvercast.2 mph80%30.19 "Hg16 mi
12:00 AM47 °FOvercast.3 mph76%30.19 "Hg16 mi
10:00 PM
Sat, May 23
50 °FOvercast.6 mph70%30.20 "Hg16 mi
9:00 PM51 °FOvercast.6 mph67%30.18 "Hg16 mi
8:00 PM53 °FOvercast.6 mph64%30.18 "Hg16 mi
7:00 PM55 °FOvercast.7 mph60%30.17 "Hg19 mi
6:00 PM56 °FOvercast.7 mph59%30.17 "Hg19 mi
4:00 PM59 °FOvercast.7 mph54%30.16 "Hg19 mi
3:00 PM60 °FOvercast.6 mph60%30.16 "Hg19 mi
2:00 PM54 °FLow clouds.5 mph79%30.18 "Hg14 mi
1:00 PM53 °FLow clouds.6 mph91%30.19 "Hg11 mi
12:00 PM53 °FLow clouds.5 mph91%30.19 "Hg7 mi
10:00 AM55 °FFog.5 mph84%30.16 "Hg4 mi
Weather by CustomWeather, © 2015

See weather overviewHow to use our weather pages